x

Boston 16 Nm East Of Boston, Ma (44013) Wave Buoy

11:50pm - Wed 23rd Aug 2017 All times are EDT. -4 hours from GMT.

  • Sig Wave height 1.6ft
  • Swell Direction
  • Peak Period 6s
  • Average Period 5s
  • Wind
    7mph, 9mph gusts
  • Sea Temp 66°f
  • 空気 Temp 68°f
  • Sea Pressure 1009.9mb
  • Boston 16 Nm East Of Boston, Ma
  • Boston 16 Nm East Of Boston, Ma

More Historic Weather Station data

Upgrade to MSW Pro to gain access to the past 30 days of data for over 8000 Wavebouys and Weather Stations around the globe.

Join

Comparision Forecast

View Surf forecast
   
Wed 08/23 11:50pm 1.6ft 6s 5s 7 9 mph 1009.9mb 66f 68f
10:50pm 1.3ft 6s 5s 7 7 mph 1009.9mb 66f 67f
9:50pm 1.3ft 7s 5s 7 9 mph 1009.7mb 66f 68f
8:50pm 1.3ft 9s 5s 9 11 mph 1009.4mb 67f 69f
7:50pm 1.3ft 10s 4s 9 11 mph 1008.8mb 67f 70f
6:50pm 1.3ft 8s 5s 11 13 mph 1008.1mb 67f 71f
5:50pm 1ft 9s 5s 9 11 mph 1007.7mb 67f 72f
4:50pm 1ft 9s 6s 11 13 mph 1007.3mb 67f 71f
3:50pm 1.3ft 9s 5s 7 9 mph 1007.3mb 67f 72f
2:50pm 1.3ft 13s 4s 9 9 mph 1007.3mb 67f 72f
12:50pm 1.6ft 6s 4s 9 9 mph 1007.5mb 66f 70f
11:50am 1.6ft 6s 5s 11 13 mph 1007.7mb 66f 70f
10:50am 1.6ft 5s 4s 7 7 mph 1007.5mb 65f 68f
9:50am 1.6ft 10s 4s 7 7 mph 1007.2mb 65f 68f
8:50am 1.6ft 4s 4s 9 11 mph 1007mb 65f 68f
7:50am 2ft 4s 4s 11 13 mph 1006.5mb 65f 68f
6:50am 2ft 4s 4s 13 16 mph 1005.8mb 65f 69f
5:50am 1.6ft 4s 4s 16 20 mph 1005.5mb 65f 69f
4:50am 1.6ft 4s 4s 13 13 mph 1004.8mb 65f 69f
3:50am 2ft 4s 4s 13 16 mph 1005mb 66f 69f
2:50am 2ft 4s 4s 16 18 mph 1005.1mb 66f 70f
1:50am 2.5ft 4s 4s 16 18 mph 1005.9mb 67f 71f
12:50am 2.5ft 4s 4s 18 20 mph 1006mb 66f 71f
Tue 08/22 11:50pm 2.5ft 4s 4s 16 20 mph 1005.9mb 66f 71f
10:50pm 2.5ft 4s 4s 18 22 mph 1005.9mb 66f 71f
9:50pm 2.5ft 4s 3s 20 25 mph 1006.4mb 66f 72f
8:50pm 2.5ft 4s 3s 18 20 mph 1007.6mb 67f 72f
7:50pm 2.5ft 4s 3s 20 22 mph 1007.6mb 67f 72f
6:50pm 2.5ft 4s 4s 25 29 mph 1008mb 68f 75f
5:50pm 2.5ft 4s 4s 22 25 mph 1008.4mb 68f 77f
4:50pm 2ft 3s 3s 16 18 mph 1008.9mb 69f 75f
2:50pm 1ft 14s 3s 13 16 mph 1010.9mb 69f 74f
1:50pm 1ft 14s 4s 11 13 mph 1011.9mb 69f 74f
12:50pm 1ft 11s 4s 9 11 mph 1013.1mb 70f 74f
11:50am 1ft 14s 3s 9 9 mph 1013.8mb 69f 73f
10:50am 1ft 3s 3s 9 11 mph 1014.4mb 69f 71f
9:50am 1ft 15s 4s 11 11 mph 1015.1mb 68f 70f
8:50am 0.7ft  -  4s 11 11 mph 1015.7mb 67f 69f
7:50am 0.7ft  -  4s 7 9 mph 1015.9mb 67f 69f
6:50am 0.7ft  -  4s 7 9 mph 1016.3mb 67f 69f
5:50am 0.7ft  -  5s 7 9 mph 1016.3mb 67f 68f
4:50am 0.7ft  -  4s 7 9 mph 1016.1mb 67f 68f
3:50am 0.7ft  -  4s 7 7 mph 1016.2mb 68f 69f
2:50am 0.7ft  -  4s 7 7 mph 1017mb 68f 69f
1:50am 0.7ft  -  5s 7 7 mph 1017.1mb 68f 69f
12:50am 0.7ft  -  5s 11 11 mph 1017.2mb 69f 70f
Mon 08/21 11:50pm 0.7ft  -  5s 9 9 mph 1017.3mb 69f 71f
10:50pm 1ft 14s 5s 9 11 mph 1017.6mb 68f 71f
9:50pm 1ft 5s 6s 13 13 mph 1017.6mb 69f 73f
8:50pm 1ft 6s 5s 11 11 mph 1017.9mb 69f 73f
7:50pm 1ft 6s 5s 7 7 mph 1017.7mb 69f 74f
6:50pm 1ft 9s 5s 9 9 mph 1017.8mb 69f 74f
5:50pm 1ft 6s 5s 7 7 mph 1018mb 69f 75f
4:50pm 0.7ft  -  5s 7 9 mph 1018.2mb 70f 73f
3:50pm 1ft 14s 5s 11 11 mph 1018.2mb 70f 71f
2:50pm 1ft 8s 5s 9 11 mph 1018.5mb 70f 71f
1:50pm 1ft 14s 5s 9 11 mph 1019.3mb 71f 72f
12:50pm 1ft 7s 5s 2 4 mph 1019.9mb 70f 75f
11:50am 1.3ft 6s 5s 4 4 mph 1020.4mb 69f 71f
10:50am 1.3ft 5s 5s 7 7 mph 1020.4mb 68f 69f
9:50am 1.3ft 6s 5s 7 7 mph 1020.7mb 67f 68f
8:50am 1.3ft 6s 5s 9 11 mph 1021mb 67f 67f
7:50am 1ft 6s 5s 11 11 mph 1021.3mb 68f 67f
6:50am 1ft 7s 6s 9 11 mph 1021mb 68f 67f
5:50am 1ft 7s 6s 9 11 mph 1020.6mb 68f 67f
4:50am 1ft 7s 5s 11 13 mph 1020mb 68f 68f
3:50am 1ft 7s 6s 11 11 mph 1019.5mb 68f 69f
2:50am 1ft 7s 6s 7 9 mph 1019.3mb 68f 69f
1:50am 1ft 7s 5s 9 11 mph 1019.2mb 67f 69f
12:50am 1ft 7s 6s 9 9 mph 1019.1mb 67f 69f
Sun 08/20 11:50pm 1ft 7s 5s 9 11 mph 1018.5mb 67f 70f
10:50pm 1.3ft 6s 5s 7 9 mph 1018mb 67f 69f
9:50pm 1.6ft 6s 5s 4 4 mph 1017.8mb 67f 69f
8:50pm 1.6ft 6s 5s 4 7 mph 1017.1mb 67f 71f
7:50pm 1.3ft 6s 4s 9 9 mph 1016.2mb 68f 71f
6:50pm 1.3ft 6s 4s 11 13 mph 1015.6mb 67f 73f
5:50pm 1.3ft 7s 4s 11 13 mph 1015.2mb 68f 74f
4:50pm 1.3ft 7s 5s 9 11 mph 1015mb 69f 74f
3:50pm 1.3ft 6s 4s 4 4 mph 1014.8mb 70f 74f
2:50pm 1.3ft 7s 4s 4 4 mph 1014.6mb 69f 74f
1:50pm 1.3ft 7s 4s 4 4 mph 1014.5mb 67f 72f
12:50pm 1.3ft 7s 4s 4 7 mph 1014.1mb 66f 71f
10:50am 1.3ft 6s 5s 7 7 mph 1013.3mb 65f 69f
9:50am 1.6ft 6s 5s 11 13 mph 1012.8mb 64f 69f
8:50am 1.6ft 6s 5s 11 11 mph 1013mb 65f 67f
7:50am 2ft 7s 5s 11 11 mph 1012.6mb 64f 67f
6:50am 1.6ft 5s 5s 9 9 mph 1011.9mb 64f 67f
5:50am 1.3ft 7s 6s 11 13 mph 1011.3mb 65f 68f